FW0788 Weather Reports


Display with metric or nautical units.
time (UTC)temp
F
wind
direction
speed
MPH
gust
MPH
rain 1hr
in
rain 24hr
in
rain mn
in
humidity
%
barometer
mb
20260509091512 51 153 0.0 0.0 0.00 0.00 0.00 85 1021.8
20260509090011 52 138 0.0 0.0 0.00 0.00 0.00 84 1021.5
20260509084515 53 138 0.0 0.0 0.00 0.00 0.00 84 1021.3
20260509083010 53 138 0.0 0.0 0.00 0.00 0.00 82 1021.2
20260509081519 54 138 0.0 0.0 0.00 0.00 0.00 82 1020.8
20260509080010 55 138 0.0 0.0 0.00 0.00 0.00 79 1020.6
20260509074509 57 138 0.0 0.0 0.00 0.00 0.00 76 1020.4
20260509073008 58 138 0.0 0.0 0.00 0.00 0.00 74 1020.1
20260509071514 60 138 0.0 0.0 0.00 0.00 0.00 70 1019.9
20260509070007 62 138 0.0 0.0 0.00 0.00 0.00 65 1019.8
20260509064506 65 138 0.0 0.0 0.00 0.00 0.00 59 1019.7
20260509063006 67 138 0.0 0.0 0.00 0.00 0.00 52 1019.5
20260509061507 68 275 0.0 0.0 0.00 0.00 0.00 50 1019.5
20260509060009 69 227 0.0 0.0 0.00 0.00 0.00 54 1019.3
20260509054507 69 204 0.0 0.0 0.00 0.00 0.00 52 1019.3
20260509053008 70 188 0.0 0.0 0.00 0.00 0.00 49 1019.2
20260509051504 71 190 0.0 0.0 0.00 0.00 0.00 46 1019.2
20260509050004 71 234 0.0 0.0 0.00 0.00 0.00 46 1019.2
20260509044502 71 138 0.0 0.0 0.00 0.00 0.00 45 1019.2
20260509043003 71 155 0.0 0.0 0.00 0.00 0.00 46 1019.2
20260509041600 71 186 0.0 0.0 0.00 0.00 0.00 46 1019.2
20260509040058 70 75 0.0 0.0 0.00 0.00 0.00 52 1019.3
20260509034601 70 270 0.0 0.0 0.00 0.00 0.00 60 1019.3
20260509033050 69 271 0.0 0.0 0.00 0.00 0.00 64 1019.4
20260509031557 68 265 0.0 0.0 0.00 0.00 0.00 64 1019.6
20260509030047 67 277 0.0 0.0 0.00 0.00 0.00 65 1019.9
20260509024543 66 283 0.0 0.0 0.00 0.00 0.00 67 1020.0
20260509023052 65 288 0.0 0.0 0.00 0.00 0.00 68 1020.4
20260509021537 64 279 0.0 0.0 0.00 0.00 0.00 67 1020.5
20260509020035 64 273 0.0 0.0 0.00 0.00 0.00 65 1020.6
20260509014534 63 288 0.0 0.0 0.00 0.00 0.00 66 1020.8
20260509013041 61 267 0.0 0.0 0.00 0.00 0.00 67 1021.0
20260509011528 62 271 0.0 0.0 0.00 0.00 0.00 65 1021.2
20260509010024 61 256 0.0 0.0 0.00 0.00 0.00 66 1021.2
20260509004523 60 255 0.0 0.0 0.00 0.00 0.00 68 1021.3
20260509003018 58 202 0.0 0.0 0.00 0.00 0.00 68 1021.4
20260509001512 57 202 0.0 0.0 0.00 0.00 0.00 72 1021.4
20260509000008 55 130 0.0 0.0 0.00 0.00 0.00 75 1021.5
20260508234506 53 130 0.0 0.0 0.00 0.00 0.00 81 1021.5
20260508233059 51 130 0.0 0.0 0.00 0.00 0.00 82 1021.6
20260508231556 49 129 0.0 0.0 0.00 0.00 0.00 87 1021.7
20260508230057 47 129 0.0 0.0 0.00 0.00 0.00 95 1021.8
20260508224600 44 129 0.0 0.0 0.00 0.00 0.00 95 1021.7
20260508223041 42 129 0.0 0.0 0.00 0.00 0.00 94 1021.7
20260508221537 40 129 0.0 0.0 0.00 0.00 0.00 94 1021.4
20260508220037 39 129 0.0 0.0 0.00 0.00 0.00 94 1021.2
20260508214534 39 129 0.0 0.0 0.00 0.00 0.00 93 1021.0
20260508213036 38 129 0.0 0.0 0.00 0.00 0.00 93 1020.9
20260508211532 38 129 0.0 0.0 0.00 0.00 0.00 93 1020.9
20260508210032 38 129 0.0 3.0 0.00 0.00 0.00 93 1020.8
20260508204529 38 129 0.0 0.0 0.00 0.00 0.00 93 1020.7
20260508203027 38 129 0.0 0.0 0.00 0.00 0.00 92 1020.6
20260508201530 38 129 0.0 0.0 0.00 0.00 0.00 93 1020.4
20260508200024 38 129 0.0 0.0 0.00 0.00 0.00 92 1020.3
20260508194521 39 129 0.0 0.0 0.00 0.00 0.00 92 1020.1
20260508193026 39 129 0.0 0.0 0.00 0.00 0.00 92 1019.9
20260508191521 39 129 0.0 0.0 0.00 0.00 0.00 92 1019.7
20260508190030 39 129 0.0 0.0 0.00 0.00 0.00 92 1019.8
20260508184514 39 129 0.0 1.0 0.00 0.00 0.00 92 1019.8
20260508183011 39 129 0.0 1.0 0.00 0.00 0.00 92 1019.8
20260508181520 39 129 0.0 1.0 0.00 0.00 0.00 92 1019.7
20260508180008 40 129 0.0 0.0 0.00 0.00 0.00 92 1019.5
20260508174506 40 129 0.0 0.0 0.00 0.00 0.00 92 1019.4
20260508173004 40 129 0.0 0.0 0.00 0.00 0.00 92 1019.4
20260508171506 40 129 0.0 0.0 0.00 0.00 0.00 92 1019.5
20260508164604 40 129 0.0 0.0 0.00 0.00 0.00 92 1019.5
20260508163059 40 129 0.0 1.0 0.00 0.00 0.00 91 1019.3
20260508161603 40 129 0.0 0.0 0.00 0.00 0.00 91 1019.4
20260508160059 41 129 0.0 0.0 0.00 0.00 0.00 91 1019.4
20260508154553 41 129 0.0 0.0 0.00 0.00 0.00 91 1019.4
20260508153050 41 129 0.0 0.0 0.00 0.00 0.00 91 1019.5
20260508151554 41 129 0.0 0.0 0.00 0.00 0.00 91 1019.4
20260508150047 41 129 0.0 0.0 0.00 0.00 0.00 91 1019.3
20260508144545 41 129 0.0 0.0 0.00 0.00 0.00 91 1019.2
20260508143044 42 129 0.0 0.0 0.00 0.00 0.00 91 1019.3
20260508141542 42 129 0.0 0.0 0.00 0.00 0.00 90 1019.3
20260508140040 42 128 0.0 0.0 0.00 0.00 0.00 90 1019.1
20260508134537 42 128 0.0 0.0 0.00 0.00 0.00 90 1019.1
20260508133057 43 128 0.0 0.0 0.00 0.00 0.00 90 1019.0
20260508131536 43 128 0.0 0.0 0.00 0.00 0.00 89 1019.0
20260508130034 43 128 0.0 0.0 0.00 0.00 0.00 89 1019.1
20260508124533 44 128 0.0 0.0 0.00 0.00 0.00 88 1019.0
20260508123028 44 128 0.0 0.0 0.00 0.00 0.00 89 1019.1
20260508121530 44 128 0.0 0.0 0.00 0.00 0.00 88 1019.1
20260508120025 45 128 0.0 0.0 0.00 0.00 0.00 88 1019.0
20260508114526 45 128 0.0 0.0 0.00 0.00 0.00 87 1019.0
20260508113030 45 128 0.0 0.0 0.00 0.00 0.00 86 1019.0
20260508111519 46 128 0.0 2.0 0.00 0.00 0.00 85 1018.9
20260508110018 47 128 0.0 0.0 0.00 0.00 0.00 84 1018.9
20260508104513 48 128 0.0 0.0 0.00 0.00 0.00 83 1018.7
20260508103014 48 128 0.0 1.0 0.00 0.00 0.00 82 1018.5
20260508101511 49 128 0.0 0.0 0.00 0.00 0.00 81 1018.5
20260508100009 50 128 0.0 0.0 0.00 0.00 0.00 79 1018.3
20260508094510 51 128 0.0 1.0 0.00 0.00 0.00 77 1018.3
20260508093007 52 128 0.0 0.0 0.00 0.00 0.00 75 1018.2